Regional Weather Roundup
Issued by NWS Green Bay, WI

Home | Current Version | Previous Version | Graphics & Text | Print | Product List | Glossary Off
Versions: 1 2 3 4 5 6 7 8 9 10 11 12 13 14 15 16 17 18 19 20 21 22 23 24 25 26 27 28 29 30 31 32 33 34 35 36 37 38 39 40 41 42 43 44 45 46 47 48 49 50

000
ASUS43 KGRB 300159
RWRGRB

NORTH-CENTRAL AND NORTHEAST WISCONSIN REGIONAL WEATHER ROUNDUP
NATIONAL WEATHER SERVICE GREEN BAY WI
800 PM CST THU JAN 29 2015

WIZ005-009-010>012-018-019-300300-
NORTH CENTRAL WISCONSIN

CITY           SKY/WX    TMP DP  RH WIND       PRES   REMARKS
IRONWOOD       CLOUDY    18   9  68 N16G22    30.31R WCI   3
MANITOWISH WTR NOT AVBL
ARBOR VITAE    NOT AVBL
EAGLE RIVER    NOT AVBL
LAND O LAKES   NOT AVBL
RHINELANDER    FLURRIES  18  10  71 NW12G24   30.25R WCI   5
PHILLIPS       NOT AVBL
ANTIGO         NOT AVBL
TOMAHAWK       NOT AVBL
MERRILL        NOT AVBL
$$

WIZ013-073-300300-
NORTHEAST WISCONSIN

CITY           SKY/WX    TMP DP  RH WIND       PRES   REMARKS
IRON MOUNTAIN  CLOUDY    18   9  68 N21G30    30.22R WCI   1
MARINETTE      PTCLDY    21   9  58 N10       30.24R
$$

WIZ017-030-035>037-045-300300-
CENTRAL WISCONSIN

CITY           SKY/WX    TMP DP  RH WIND       PRES   REMARKS
MEDFORD        NOT AVBL
WAUSAU         CLOUDY    22  13  68 N12G20    30.26R
MOSINEE        FLURRIES  23  16  74 NW16      30.27R WCI  10
MARSHFIELD     CLOUDY    23  12  62 NW22      30.29R WCI   8
WISC RAPIDS    CLOUDY    26  12  55 NW18G24   30.29R
STEVENS POINT  NOT AVBL
WAUPACA        NOT AVBL
SHAWANO        NOT AVBL
CLINTONVILLE   NOT AVBL
$$

WIZ038-039-048-051-300300-
FOX VALLEY

CITY           SKY/WX    TMP DP  RH WIND       PRES   REMARKS
NWS GREEN BAY  CLOUDY    25  13  60 N13G22    30.25R
APPLETON       CLOUDY    27  12  54 NW21G29   30.25R
OSHKOSH        CLOUDY    27  13  55 N23G35    30.23R
FOND DU LAC    CLOUDY    28  16  60 N20G33    30.24R
$$

WIZ022-050-052-300300-
EAST CENTRAL WISCONSIN

CITY           SKY/WX    TMP DP  RH WIND       PRES   REMARKS
STURGEON BAY   MOCLDY    19  10  68 N18G25    30.25R WCI   4
MANITOWOC      NOT AVBL
SHEBOYGAN      CLOUDY    28  16  60 N21G31    30.21R
$$

LMZ563-521-522-541>543-300300-
LAKESHORE

STATION/POSITION TIME  TEMP    WIND        PRES    VSBY  WAVE
                       AIR SEA DIR/SP/G                  HT/PER
                 (UTC) (F)     (DEG/KT/KT) (MB)    (MI)  (FT/S)
SHEBOYGAN LKSHOR 0100   31     340/ 21/ 26 1022.7R
KEWAUNEE LKSHORE 0100   26     350/ 13/ 18 1022.1R
TWO RIVERS CG    0100   29                 1013.1    3/8   4
NORTHPORT PIER   0100   20     330/ 24     1022.7R
SISTER BAY LKSHO 0100   20      10/ 21/ 26   N/A
STURGEON BAY CG  0100   23     330/ 17     1022.6S     6   1
CHAMBERS ISLAND  0100   20     310/ 18/ 24 1023.7R
MENOMINEE LKSHOR 0100   22     320/ 18     1024.1R
$$


USA.gov is the U.S. government's official web portal to all federal, state and local government web resources and services.